Location: Palmerston North
(40.3500°S, 175.6170°E)
Time: 15:43:53
(UTC+13:00)

CENTAUR R/B - Pass Details

Date: 24 January 2019
Orbit: 813 x 1375 km, 63.5° (Epoch: 28 January)

Event Time Altitude Azimuth Distance (km) Brightness Sun altitude
Exits shadow 23:28:52 33° 74° (ENE) 1,929 3.6 -24.1°
Drops below altitude 10° 23:34:44 10° 128° (SE) 3,025 5.1 -24.7°
Sets 23:37:33 0° 136° (SE) 3,903 5.9 -25.0°
